Time,TemperatureF,DewpointF,PressureIn,WindDirection,WindDirectionDegrees,WindSpeedMPH,WindSpeedGustMPH,Humidity,HourlyPrecipIn,Conditions,Clouds,dailyrainin,SoftwareType,DateUTC
2013-04-09 00:00:00,63.4,56.4,30.13,East,99,0.0,0.0,78,0.00,CLR,,0.00,WeatherDisplay:10.37,2013-04-09 04:00:00,
2013-04-09 00:02:00,63.5,59.6,30.16,East,99,0.0,0.0,87,0.00,CLR,,0.00,WeatherDisplay:10.37,2013-04-09 04:02:00,
2013-04-09 00:07:00,63.5,59.6,30.16,East,99,0.0,0.0,87,0.00,CLR,,0.00,WeatherDisplay:10.37,2013-04-09 04:07:00,
2013-04-09 00:12:00,63.5,59.6,30.16,East,99,0.0,0.0,87,0.00,CLR,,0.00,WeatherDisplay:10.37,2013-04-09 04:12:00,
2013-04-09 00:17:00,63.5,59.6,30.16,East,99,0.0,0.0,87,0.00,CLR,,0.00,WeatherDisplay:10.37,2013-04-09 04:17:00,
2013-04-09 00:22:00,63.5,59.6,30.16,East,99,0.0,0.0,87,0.00,CLR,,0.00,WeatherDisplay:10.37,2013-04-09 04:22:00,
2013-04-09 00:27:00,63.7,59.7,30.16,East,99,0.0,0.0,87,0.00,CLR,,0.00,WeatherDisplay:10.37,2013-04-09 04:27:00,
2013-04-09 00:32:00,63.7,59.7,30.16,East,99,0.0,0.0,87,0.00,CLR,,0.00,WeatherDisplay:10.37,2013-04-09 04:32:00,
2013-04-09 00:37:00,63.7,59.7,30.16,East,99,0.0,0.0,87,0.00,CLR,,0.00,WeatherDisplay:10.37,2013-04-09 04:37:00,
2013-04-09 00:42:00,63.5,59.6,30.16,East,99,0.0,0.0,87,0.00,CLR,,0.00,WeatherDisplay:10.37,2013-04-09 04:42:00,
2013-04-09 00:47:00,63.5,59.6,30.16,East,99,0.0,0.0,87,0.00,CLR,,0.00,WeatherDisplay:10.37,2013-04-09 04:47:00,
2013-04-09 00:52:00,63.5,59.6,30.16,East,99,0.0,0.0,87,0.00,CLR,,0.00,WeatherDisplay:10.37,2013-04-09 04:52:00,
2013-04-09 00:57:00,63.5,59.6,30.16,East,99,0.0,0.0,87,0.00,CLR,,0.00,WeatherDisplay:10.37,2013-04-09 04:57:00,
2013-04-09 01:02:00,63.7,61.6,30.14,East,99,0.0,0.0,93,0.00,CLR,,0.00,WeatherDisplay:10.37,2013-04-09 05:02:00,
2013-04-09 01:07:00,63.7,61.6,30.14,East,100,0.0,0.0,93,0.00,CLR,,0.00,WeatherDisplay:10.37,2013-04-09 05:07:00,
2013-04-09 01:12:00,63.9,61.8,30.14,ESE,119,0.0,0.0,93,0.00,CLR,,0.00,WeatherDisplay:10.37,2013-04-09 05:12:00,
2013-04-09 01:18:00,63.9,61.8,30.14,SE,140,0.0,0.0,93,0.00,CLR,,0.00,WeatherDisplay:10.37,2013-04-09 05:18:00,
2013-04-09 01:23:00,64.0,62.0,30.14,SE,139,0.0,0.0,93,0.00,CLR,,0.00,WeatherDisplay:10.37,2013-04-09 05:23:00,
2013-04-09 01:28:00,64.0,62.0,30.14,SE,138,0.0,0.0,93,0.00,CLR,,0.00,WeatherDisplay:10.37,2013-04-09 05:28:00,
2013-04-09 01:33:00,64.0,62.0,30.14,SE,138,0.0,0.0,93,0.00,CLR,,0.00,WeatherDisplay:10.37,2013-04-09 05:33:00,
2013-04-09 01:38:00,63.9,61.8,30.14,ESE,106,3.5,0.0,93,0.00,CLR,,0.00,WeatherDisplay:10.37,2013-04-09 05:38:00,
2013-04-09 01:43:00,63.9,61.8,30.14,ESE,112,0.0,0.0,93,0.00,CLR,,0.00,WeatherDisplay:10.37,2013-04-09 05:43:00,
2013-04-09 01:48:00,63.7,61.6,30.14,ESE,116,3.5,3.5,93,0.00,CLR,,0.00,WeatherDisplay:10.37,2013-04-09 05:48:00,
2013-04-09 01:53:00,64.2,62.2,30.14,SE,137,2.3,0.0,93,0.00,CLR,,0.00,WeatherDisplay:10.37,2013-04-09 05:53:00,
2013-04-09 01:58:00,64.4,62.3,30.14,SE,137,0.0,0.0,93,0.00,CLR,,0.00,WeatherDisplay:10.37,2013-04-09 05:58:00,
2013-04-09 02:03:00,64.2,62.2,30.14,SE,137,0.0,0.0,93,0.00,CLR,,0.00,WeatherDisplay:10.37,2013-04-09 06:03:00,
2013-04-09 02:08:00,64.2,62.2,30.14,ESE,115,0.0,0.0,93,0.00,CLR,,0.00,WeatherDisplay:10.37,2013-04-09 06:08:00,
2013-04-09 02:13:00,64.2,62.2,30.14,SE,125,3.5,3.5,93,0.00,CLR,,0.00,WeatherDisplay:10.37,2013-04-09 06:13:00,
2013-04-09 02:18:00,64.0,62.0,30.14,ESE,122,0.0,0.0,93,0.00,CLR,,0.00,WeatherDisplay:10.37,2013-04-09 06:18:00,
2013-04-09 02:23:00,64.0,62.0,30.14,ESE,107,0.0,0.0,93,0.00,CLR,,0.00,WeatherDisplay:10.37,2013-04-09 06:23:00,
2013-04-09 02:28:00,63.9,61.8,30.14,ESE,118,0.0,0.0,93,0.00,CLR,,0.00,WeatherDisplay:10.37,2013-04-09 06:28:00,
2013-04-09 02:33:00,63.9,61.8,30.14,ESE,119,0.0,0.0,93,0.00,CLR,,0.00,WeatherDisplay:10.37,2013-04-09 06:33:00,
2013-04-09 02:38:00,63.9,61.8,30.14,ESE,119,0.0,0.0,93,0.00,CLR,,0.00,WeatherDisplay:10.37,2013-04-09 06:38:00,
2013-04-09 02:43:00,63.9,61.8,30.14,SE,140,0.0,0.0,93,0.00,CLR,,0.00,WeatherDisplay:10.37,2013-04-09 06:43:00,
2013-04-09 02:48:00,63.9,61.8,30.14,SE,135,3.5,0.0,93,0.00,CLR,,0.00,WeatherDisplay:10.37,2013-04-09 06:48:00,
2013-04-09 02:53:00,63.9,61.8,30.14,SE,135,2.3,0.0,93,0.00,CLR,,0.00,WeatherDisplay:10.37,2013-04-09 06:53:00,
2013-04-09 02:58:00,63.9,61.8,30.14,SE,135,0.0,0.0,93,0.00,CLR,,0.00,WeatherDisplay:10.37,2013-04-09 06:58:00,
2013-04-09 03:03:00,63.9,61.8,30.11,SE,135,0.0,0.0,93,0.00,CLR,,0.00,WeatherDisplay:10.37,2013-04-09 07:03:00,
2013-04-09 03:08:00,63.9,61.8,30.11,SE,135,0.0,0.0,93,0.00,CLR,,0.00,WeatherDisplay:10.37,2013-04-09 07:08:00,
2013-04-09 03:13:00,63.7,61.6,30.11,SE,135,0.0,0.0,93,0.00,CLR,,0.00,WeatherDisplay:10.37,2013-04-09 07:13:00,
2013-04-09 03:18:00,63.5,61.4,30.11,SE,135,0.0,0.0,93,0.00,CLR,,0.00,WeatherDisplay:10.37,2013-04-09 07:18:00,
2013-04-09 03:23:00,63.5,61.4,30.11,SE,135,0.0,0.0,93,0.00,CLR,,0.00,WeatherDisplay:10.37,2013-04-09 07:23:00,
2013-04-09 03:28:00,63.3,61.3,30.11,SE,135,0.0,0.0,93,0.00,CLR,,0.00,WeatherDisplay:10.37,2013-04-09 07:28:00,
2013-04-09 03:33:00,63.5,61.4,30.11,SE,136,0.0,0.0,93,0.00,CLR,,0.00,WeatherDisplay:10.37,2013-04-09 07:33:00,
2013-04-09 03:38:00,63.5,61.4,30.11,SE,136,0.0,0.0,93,0.00,CLR,,0.00,WeatherDisplay:10.37,2013-04-09 07:38:00,
2013-04-09 03:43:00,63.5,61.4,30.11,SE,136,0.0,0.0,93,0.00,CLR,,0.00,WeatherDisplay:10.37,2013-04-09 07:43:00,
2013-04-09 03:48:00,63.3,61.3,30.11,SE,136,0.0,0.0,93,0.00,CLR,,0.00,WeatherDisplay:10.37,2013-04-09 07:48:00,
2013-04-09 03:53:00,63.1,61.1,30.11,SE,136,0.0,0.0,93,0.00,CLR,,0.00,WeatherDisplay:10.37,2013-04-09 07:53:00,
2013-04-09 03:58:00,63.0,60.9,30.11,SE,136,0.0,0.0,93,0.00,CLR,,0.00,WeatherDisplay:10.37,2013-04-09 07:58:00,
2013-04-09 04:03:00,62.8,60.7,30.10,SE,136,0.0,0.0,93,0.00,CLR,,0.00,WeatherDisplay:10.37,2013-04-09 08:03:00,
2013-04-09 04:08:00,62.2,60.2,30.10,SE,136,0.0,0.0,93,0.00,CLR,,0.00,WeatherDisplay:10.37,2013-04-09 08:08:00,
2013-04-09 04:13:00,61.9,59.8,30.10,SE,136,0.0,0.0,93,0.00,CLR,,0.00,WeatherDisplay:10.37,2013-04-09 08:13:00,
2013-04-09 04:18:00,61.5,59.5,30.10,SE,136,0.0,0.0,93,0.00,CLR,,0.00,WeatherDisplay:10.37,2013-04-09 08:18:00,
2013-04-09 04:23:00,61.2,59.1,30.10,SE,136,0.0,0.0,93,0.00,CLR,,0.00,WeatherDisplay:10.37,2013-04-09 08:23:00,
2013-04-09 04:28:00,61.0,58.9,30.10,SE,136,0.0,0.0,93,0.00,CLR,,0.00,WeatherDisplay:10.37,2013-04-09 08:28:00,
2013-04-09 04:33:00,60.6,58.6,30.10,SE,136,0.0,0.0,93,0.00,CLR,,0.00,WeatherDisplay:10.37,2013-04-09 08:33:00,
2013-04-09 04:38:00,60.4,58.4,30.10,SE,136,0.0,0.0,93,0.00,CLR,,0.00,WeatherDisplay:10.37,2013-04-09 08:38:00,
2013-04-09 04:43:00,60.6,58.6,30.10,SE,136,0.0,0.0,93,0.00,CLR,,0.00,WeatherDisplay:10.37,2013-04-09 08:43:00,
2013-04-09 04:48:00,60.4,58.4,30.10,SE,136,0.0,0.0,93,0.00,CLR,,0.00,WeatherDisplay:10.37,2013-04-09 08:48:00,
2013-04-09 04:53:00,60.1,58.0,30.10,SE,136,0.0,0.0,93,0.00,CLR,,0.00,WeatherDisplay:10.37,2013-04-09 08:53:00,
2013-04-09 04:58:00,59.7,57.7,30.10,SE,136,0.0,0.0,93,0.00,CLR,,0.00,WeatherDisplay:10.37,2013-04-09 08:58:00,
2013-04-09 05:03:00,59.5,58.4,30.10,SE,136,0.0,0.0,96,0.00,CLR,,0.00,WeatherDisplay:10.37,2013-04-09 09:03:00,
2013-04-09 05:08:00,59.4,58.2,30.10,SE,136,0.0,0.0,96,0.00,CLR,,0.00,WeatherDisplay:10.37,2013-04-09 09:08:00,
2013-04-09 05:13:00,59.2,58.0,30.10,SE,136,0.0,0.0,96,0.00,CLR,,0.00,WeatherDisplay:10.37,2013-04-09 09:13:00,
2013-04-09 05:18:00,59.0,57.9,30.10,SE,136,0.0,0.0,96,0.00,CLR,,0.00,WeatherDisplay:10.37,2013-04-09 09:18:00,
2013-04-09 05:23:00,58.8,57.7,30.10,SE,136,0.0,0.0,96,0.00,CLR,,0.00,WeatherDisplay:10.37,2013-04-09 09:23:00,
2013-04-09 05:29:00,58.6,57.5,30.10,SE,136,0.0,0.0,96,0.00,CLR,,0.00,WeatherDisplay:10.37,2013-04-09 09:29:00,
2013-04-09 05:34:00,58.5,57.3,30.10,SE,136,0.0,0.0,96,0.00,CLR,,0.00,WeatherDisplay:10.37,2013-04-09 09:34:00,
2013-04-09 05:40:00,58.5,57.3,30.10,SE,136,0.0,0.0,96,0.00,CLR,,0.00,WeatherDisplay:10.37,2013-04-09 09:40:00,
2013-04-09 05:45:00,58.3,57.1,30.10,SE,136,0.0,0.0,96,0.00,CLR,,0.00,WeatherDisplay:10.37,2013-04-09 09:45:00,
2013-04-09 05:50:00,58.3,57.1,30.10,SE,136,0.0,0.0,96,0.00,CLR,,0.00,WeatherDisplay:10.37,2013-04-09 09:50:00,
2013-04-09 05:55:00,58.3,57.1,30.10,SE,136,0.0,0.0,96,0.00,CLR,,0.00,WeatherDisplay:10.37,2013-04-09 09:55:00,
2013-04-09 06:00:00,58.3,57.1,30.10,SE,136,0.0,0.0,96,0.00,CLR,,0.00,WeatherDisplay:10.37,2013-04-09 10:00:00,
2013-04-09 06:05:00,58.8,57.7,30.11,SE,136,0.0,0.0,96,0.00,CLR,,0.00,WeatherDisplay:10.37,2013-04-09 10:05:00,
2013-04-09 06:10:00,58.6,57.5,30.11,SE,136,0.0,0.0,96,0.00,CLR,,0.00,WeatherDisplay:10.37,2013-04-09 10:10:00,
2013-04-09 06:15:00,58.8,57.7,30.11,SE,136,0.0,0.0,96,0.00,CLR,,0.00,WeatherDisplay:10.37,2013-04-09 10:15:00,
2013-04-09 06:20:00,58.8,57.7,30.11,SE,136,0.0,0.0,96,0.00,CLR,,0.00,WeatherDisplay:10.37,2013-04-09 10:20:00,
2013-04-09 06:25:00,58.6,57.5,30.11,SE,136,0.0,0.0,96,0.00,CLR,,0.00,WeatherDisplay:10.37,2013-04-09 10:25:00,
2013-04-09 06:30:00,58.5,57.3,30.11,SE,136,0.0,0.0,96,0.00,CLR,,0.00,WeatherDisplay:10.37,2013-04-09 10:30:00,
2013-04-09 06:35:00,58.5,57.3,30.11,SE,136,0.0,0.0,96,0.00,CLR,,0.00,WeatherDisplay:10.37,2013-04-09 10:35:00,
2013-04-09 06:40:00,58.6,57.5,30.11,SE,136,0.0,0.0,96,0.00,CLR,,0.00,WeatherDisplay:10.37,2013-04-09 10:40:00,
2013-04-09 06:45:00,59.0,57.9,30.11,SE,136,0.0,0.0,96,0.00,CLR,,0.00,WeatherDisplay:10.37,2013-04-09 10:45:00,
2013-04-09 06:50:00,59.4,58.2,30.11,SE,136,0.0,0.0,96,0.00,CLR,,0.00,WeatherDisplay:10.37,2013-04-09 10:50:00,
2013-04-09 06:55:00,59.5,58.4,30.11,SE,136,0.0,0.0,96,0.00,CLR,,0.00,WeatherDisplay:10.37,2013-04-09 10:55:00,
2013-04-09 07:01:00,59.7,58.6,30.11,SE,136,0.0,0.0,96,0.00,CLR,,0.00,WeatherDisplay:10.37,2013-04-09 11:01:00,
2013-04-09 07:06:00,59.7,58.6,30.13,SE,136,0.0,0.0,96,0.00,CLR,,0.00,WeatherDisplay:10.37,2013-04-09 11:06:00,
2013-04-09 07:11:00,59.7,58.6,30.13,SE,136,0.0,0.0,96,0.00,CLR,,0.00,WeatherDisplay:10.37,2013-04-09 11:11:00,
2013-04-09 07:16:00,59.9,58.8,30.13,SE,136,0.0,0.0,96,0.00,CLR,,0.00,WeatherDisplay:10.37,2013-04-09 11:16:00,
2013-04-09 07:21:00,60.1,58.9,30.13,SE,136,0.0,0.0,96,0.00,CLR,,0.00,WeatherDisplay:10.37,2013-04-09 11:21:00,
2013-04-09 07:26:00,60.1,58.9,30.13,SE,136,0.0,0.0,96,0.00,CLR,,0.00,WeatherDisplay:10.37,2013-04-09 11:26:00,
2013-04-09 07:31:00,60.1,58.9,30.13,SE,136,0.0,0.0,96,0.00,CLR,,0.00,WeatherDisplay:10.37,2013-04-09 11:31:00,
2013-04-09 07:36:00,60.4,59.3,30.13,SE,136,0.0,0.0,96,0.00,CLR,,0.00,WeatherDisplay:10.37,2013-04-09 11:36:00,
2013-04-09 07:41:00,60.6,59.5,30.13,SE,136,0.0,0.0,96,0.00,CLR,,0.00,WeatherDisplay:10.37,2013-04-09 11:41:00,
2013-04-09 07:46:00,61.2,60.0,30.13,SE,136,0.0,0.0,96,0.00,CLR,,0.00,WeatherDisplay:10.37,2013-04-09 11:46:00,
2013-04-09 07:51:00,61.9,60.7,30.13,SE,136,0.0,0.0,96,0.00,CLR,,0.00,WeatherDisplay:10.37,2013-04-09 11:51:00,
2013-04-09 07:56:00,62.4,61.3,30.13,SE,136,0.0,0.0,96,0.00,CLR,,0.00,WeatherDisplay:10.37,2013-04-09 11:56:00,
2013-04-09 08:01:00,63.0,61.8,30.15,SE,136,0.0,0.0,96,0.00,CLR,,0.00,WeatherDisplay:10.37,2013-04-09 12:01:00,
2013-04-09 08:06:00,63.3,62.2,30.15,SE,136,0.0,0.0,96,0.00,CLR,,0.00,WeatherDisplay:10.37,2013-04-09 12:06:00,
2013-04-09 08:11:00,63.9,62.7,30.15,SE,136,0.0,0.0,96,0.00,CLR,,0.00,WeatherDisplay:10.37,2013-04-09 12:11:00,
2013-04-09 08:16:00,64.4,63.2,30.15,SE,136,0.0,0.0,96,0.00,CLR,,0.00,WeatherDisplay:10.37,2013-04-09 12:16:00,
2013-04-09 08:22:00,64.6,63.4,30.15,SE,127,3.6,0.0,96,0.00,CLR,,0.00,WeatherDisplay:10.37,2013-04-09 12:22:00,
2013-04-09 08:27:00,64.8,63.6,30.15,SE,127,0.0,0.0,96,0.00,CLR,,0.00,WeatherDisplay:10.37,2013-04-09 12:27:00,
2013-04-09 08:32:00,65.1,64.0,30.15,ESE,116,3.5,0.0,96,0.00,CLR,,0.00,WeatherDisplay:10.37,2013-04-09 12:32:00,
2013-04-09 08:37:00,66.2,65.0,30.15,ESE,123,3.5,0.0,96,0.00,CLR,,0.00,WeatherDisplay:10.37,2013-04-09 12:37:00,
2013-04-09 08:42:00,66.9,65.7,30.15,ESE,115,4.6,4.6,96,0.00,CLR,,0.00,WeatherDisplay:10.37,2013-04-09 12:42:00,
2013-04-09 08:47:00,68.0,66.8,30.15,East,94,4.6,4.6,96,0.00,CLR,,0.00,WeatherDisplay:10.37,2013-04-09 12:47:00,
2013-04-09 08:52:00,69.1,67.9,30.15,ESE,112,5.8,5.8,96,0.00,CLR,,0.00,WeatherDisplay:10.37,2013-04-09 12:52:00,
2013-04-09 08:57:00,69.8,68.6,30.15,SE,125,5.8,5.8,96,0.00,CLR,,0.00,WeatherDisplay:10.37,2013-04-09 12:57:00,
2013-04-09 09:02:00,71.2,67.2,30.17,SSE,148,5.8,5.8,87,0.00,CLR,,0.00,WeatherDisplay:10.37,2013-04-09 13:02:00,
2013-04-09 09:07:00,72.1,68.1,30.17,ESE,115,5.8,5.8,87,0.00,CLR,,0.00,WeatherDisplay:10.37,2013-04-09 13:07:00,
2013-04-09 09:12:00,72.7,68.6,30.17,SE,140,5.8,5.8,87,0.00,CLR,,0.00,WeatherDisplay:10.37,2013-04-09 13:12:00,
2013-04-09 09:17:00,73.2,69.1,30.17,SSE,151,8.1,8.1,87,0.00,CLR,,0.00,WeatherDisplay:10.37,2013-04-09 13:17:00,
2013-04-09 09:22:00,74.1,70.0,30.17,ESE,122,5.8,5.8,87,0.00,CLR,,0.00,WeatherDisplay:10.37,2013-04-09 13:22:00,
2013-04-09 09:27:00,74.3,70.2,30.17,SE,144,8.1,8.1,87,0.00,CLR,,0.00,WeatherDisplay:10.37,2013-04-09 13:27:00,
2013-04-09 09:32:00,75.0,70.9,30.17,ESE,122,10.9,10.9,87,0.00,CLR,,0.00,WeatherDisplay:10.37,2013-04-09 13:32:00,
2013-04-09 09:37:00,75.2,71.1,30.17,SE,145,8.1,8.1,87,0.00,CLR,,0.00,WeatherDisplay:10.37,2013-04-09 13:37:00,
2013-04-09 09:42:00,75.6,71.4,30.17,SE,136,8.3,8.3,87,0.00,CLR,,0.00,WeatherDisplay:10.37,2013-04-09 13:42:00,
2013-04-09 09:47:00,75.9,71.8,30.17,SE,145,6.3,6.3,87,0.00,CLR,,0.00,WeatherDisplay:10.37,2013-04-09 13:47:00,
2013-04-09 09:52:00,76.3,72.1,30.17,SSE,154,5.8,5.8,87,0.00,CLR,,0.00,WeatherDisplay:10.37,2013-04-09 13:52:00,
2013-04-09 09:57:00,76.5,72.3,30.17,SSE,156,8.1,8.1,87,0.00,CLR,,0.00,WeatherDisplay:10.37,2013-04-09 13:57:00,
2013-04-09 10:02:00,77.5,64.4,30.19,SSE,162,10.4,10.4,64,0.00,CLR,,0.00,WeatherDisplay:10.37,2013-04-09 14:02:00,
2013-04-09 10:07:00,77.5,64.4,30.19,SE,132,9.2,9.2,64,0.00,CLR,,0.00,WeatherDisplay:10.37,2013-04-09 14:07:00,
2013-04-09 10:12:00,77.5,64.4,30.19,SSE,153,5.8,5.8,64,0.00,CLR,,0.00,WeatherDisplay:10.37,2013-04-09 14:12:00,
2013-04-09 10:18:00,78.6,65.4,30.19,SE,127,8.1,8.1,64,0.00,CLR,,0.00,WeatherDisplay:10.37,2013-04-09 14:18:00,
2013-04-09 10:23:00,78.4,65.2,30.19,SE,128,11.5,11.5,64,0.00,CLR,,0.00,WeatherDisplay:10.37,2013-04-09 14:23:00,
2013-04-09 10:28:00,78.4,65.2,30.19,ESE,116,8.1,8.1,64,0.00,CLR,,0.00,WeatherDisplay:10.37,2013-04-09 14:28:00,
2013-04-09 10:33:00,79.2,65.9,30.19,SE,142,9.2,9.2,64,0.00,CLR,,0.00,WeatherDisplay:10.37,2013-04-09 14:33:00,
2013-04-09 10:38:00,79.0,65.8,30.19,WSW,255,9.2,9.2,64,0.00,CLR,,0.00,WeatherDisplay:10.37,2013-04-09 14:38:00,
2013-04-09 10:43:00,80.2,67.0,30.19,SE,145,8.1,8.1,64,0.00,CLR,,0.00,WeatherDisplay:10.37,2013-04-09 14:43:00,
2013-04-09 10:49:00,80.2,67.0,30.19,South,174,8.1,8.1,64,0.00,CLR,,0.00,WeatherDisplay:10.37,2013-04-09 14:49:00,
2013-04-09 10:54:00,79.3,66.1,30.19,SE,145,5.8,5.8,64,0.00,CLR,,0.00,WeatherDisplay:10.37,2013-04-09 14:54:00,
2013-04-09 10:59:00,79.9,66.6,30.19,ESE,112,8.1,8.1,64,0.00,CLR,,0.00,WeatherDisplay:10.37,2013-04-09 14:59:00,
2013-04-09 11:04:00,79.0,61.9,30.20,ESE,118,9.2,9.2,56,0.00,FEW,,0.00,WeatherDisplay:10.37,2013-04-09 15:04:00,
2013-04-09 11:09:00,79.3,62.3,30.20,South,177,5.8,5.8,56,0.00,FEW,,0.00,WeatherDisplay:10.37,2013-04-09 15:09:00,
2013-04-09 11:15:00,79.5,62.4,30.20,ESE,122,9.2,9.2,56,0.00,FEW,,0.00,WeatherDisplay:10.37,2013-04-09 15:15:00,
2013-04-09 11:20:00,80.8,63.6,30.20,ESE,106,8.1,8.1,56,0.00,FEW,,0.00,WeatherDisplay:10.37,2013-04-09 15:20:00,
2013-04-09 11:25:00,81.7,64.5,30.20,South,186,8.1,8.1,56,0.00,FEW,,0.00,WeatherDisplay:10.37,2013-04-09 15:25:00,
2013-04-09 11:30:00,81.7,64.5,30.20,SSW,203,5.8,5.8,56,0.00,FEW,,0.00,WeatherDisplay:10.37,2013-04-09 15:30:00,
2013-04-09 11:35:00,81.6,64.4,30.20,South,170,6.0,11.0,56,0.00,FEW,,0.00,WeatherDisplay:10.37,2013-04-09 15:35:00,
2013-04-09 11:40:00,80.8,63.6,30.20,SSE,166,8.1,8.1,56,0.00,FEW,,0.00,WeatherDisplay:10.37,2013-04-09 15:40:00,
2013-04-09 11:45:00,80.4,63.3,30.20,SSE,153,8.3,8.3,56,0.00,FEW,,0.00,WeatherDisplay:10.37,2013-04-09 15:45:00,
2013-04-09 11:50:00,81.1,64.0,30.20,SSE,168,7.0,11.0,56,0.00,FEW,,0.00,WeatherDisplay:10.37,2013-04-09 15:50:00,
2013-04-09 11:55:00,81.5,64.3,30.20,South,170,6.0,10.0,56,0.00,FEW,,0.00,WeatherDisplay:10.37,2013-04-09 15:55:00,
2013-04-09 12:00:00,80.8,63.6,30.20,SE,127,9.2,9.2,56,0.00,FEW,,0.00,WeatherDisplay:10.37,2013-04-09 16:00:00,
2013-04-09 12:05:00,79.5,57.5,30.19,ESE,110,5.8,5.8,47,0.00,SCT,,0.00,WeatherDisplay:10.37,2013-04-09 16:05:00,
2013-04-09 12:10:00,79.4,57.4,30.19,SE,145,8.0,11.0,47,0.00,SCT,,0.00,WeatherDisplay:10.37,2013-04-09 16:10:00,
2013-04-09 12:15:00,79.9,57.8,30.19,ESE,113,8.1,8.1,47,0.00,SCT,,0.00,WeatherDisplay:10.37,2013-04-09 16:15:00,
2013-04-09 12:20:00,79.7,57.7,30.19,ESE,110,9.2,9.2,47,0.00,SCT,,0.00,WeatherDisplay:10.37,2013-04-09 16:20:00,
2013-04-09 12:25:00,79.7,57.7,30.19,ESE,108,6.0,9.0,47,0.00,SCT,,0.00,WeatherDisplay:10.37,2013-04-09 16:25:00,
2013-04-09 12:30:00,79.7,57.7,30.19,ESE,117,12.7,12.7,47,0.00,SCT,,0.00,WeatherDisplay:10.37,2013-04-09 16:30:00,
2013-04-09 12:35:00,80.9,58.8,30.19,SE,127,6.0,8.0,47,0.00,SCT,,0.00,WeatherDisplay:10.37,2013-04-09 16:35:00,
2013-04-09 12:40:00,82.2,60.0,30.19,SE,126,7.0,9.0,47,0.00,SCT,,0.00,WeatherDisplay:10.37,2013-04-09 16:40:00,
2013-04-09 12:45:00,82.8,60.5,30.19,SE,141,8.0,10.0,47,0.00,SCT,,0.00,WeatherDisplay:10.37,2013-04-09 16:45:00,
2013-04-09 12:50:00,84.0,61.6,30.19,SE,145,12.7,12.7,47,0.00,SCT,,0.00,WeatherDisplay:10.37,2013-04-09 16:50:00,
2013-04-09 12:55:00,83.8,61.5,30.19,SSE,154,10.4,10.4,47,0.00,SCT,,0.00,WeatherDisplay:10.37,2013-04-09 16:55:00,
2013-04-09 13:00:00,83.5,61.1,30.19,South,189,5.8,5.8,47,0.00,SCT,,0.00,WeatherDisplay:10.37,2013-04-09 17:00:00,
2013-04-09 13:05:00,81.9,60.2,30.18,SSE,159,8.1,8.1,48,0.00,SCT,,0.00,WeatherDisplay:10.37,2013-04-09 17:05:00,
2013-04-09 13:10:00,81.1,59.6,30.18,SE,124,8.1,8.1,48,0.00,SCT,,0.00,WeatherDisplay:10.37,2013-04-09 17:10:00,
2013-04-09 13:15:00,82.0,60.4,30.18,ESE,104,9.2,9.2,48,0.00,SCT,,0.00,WeatherDisplay:10.37,2013-04-09 17:15:00,
2013-04-09 13:20:00,82.8,61.1,30.18,SSE,147,12.7,12.7,48,0.00,SCT,,0.00,WeatherDisplay:10.37,2013-04-09 17:20:00,
2013-04-09 13:25:00,81.5,59.9,30.18,SE,125,10.4,10.4,48,0.00,SCT,,0.00,WeatherDisplay:10.37,2013-04-09 17:25:00,
2013-04-09 13:30:00,81.0,59.4,30.18,South,175,9.2,9.2,48,0.00,SCT,,0.00,WeatherDisplay:10.37,2013-04-09 17:30:00,
2013-04-09 13:35:00,81.5,59.9,30.18,SSE,158,8.1,8.1,48,0.00,SCT,,0.00,WeatherDisplay:10.37,2013-04-09 17:35:00,
2013-04-09 13:40:00,82.8,61.1,30.18,ESE,121,10.4,10.4,48,0.00,SCT,,0.00,WeatherDisplay:10.37,2013-04-09 17:40:00,
2013-04-09 13:45:00,82.8,61.1,30.18,SE,124,10.4,10.4,48,0.00,SCT,,0.00,WeatherDisplay:10.37,2013-04-09 17:45:00,
2013-04-09 13:50:00,81.9,60.2,30.18,SE,139,11.5,11.5,48,0.00,SCT,,0.00,WeatherDisplay:10.37,2013-04-09 17:50:00,
2013-04-09 13:55:00,81.9,60.2,30.18,SE,135,10.4,10.4,48,0.00,SCT,,0.00,WeatherDisplay:10.37,2013-04-09 17:55:00,
2013-04-09 14:01:00,81.7,60.1,30.18,East,80,8.1,8.1,48,0.00,SCT,,0.00,WeatherDisplay:10.37,2013-04-09 18:01:00,
2013-04-09 14:06:00,81.5,59.9,30.18,SE,144,5.8,5.8,48,0.00,SCT,,0.00,WeatherDisplay:10.37,2013-04-09 18:06:00,
2013-04-09 14:11:00,82.4,60.7,30.18,SSE,157,10.4,10.4,48,0.00,SCT,,0.00,WeatherDisplay:10.37,2013-04-09 18:11:00,
2013-04-09 14:16:00,82.8,61.1,30.18,SE,136,8.1,8.1,48,0.00,SCT,,0.00,WeatherDisplay:10.37,2013-04-09 18:16:00,
2013-04-09 14:21:00,81.7,60.1,30.18,SSE,153,11.5,11.5,48,0.00,SCT,,0.00,WeatherDisplay:10.37,2013-04-09 18:21:00,
2013-04-09 14:26:00,81.3,59.8,30.18,ENE,76,11.5,11.5,48,0.00,SCT,,0.00,WeatherDisplay:10.37,2013-04-09 18:26:00,
2013-04-09 14:31:00,82.0,60.4,30.18,ESE,122,9.2,9.2,48,0.00,SCT,,0.00,WeatherDisplay:10.37,2013-04-09 18:31:00,
2013-04-09 14:36:00,81.3,59.8,30.18,SSW,192,13.8,13.8,48,0.00,SCT,,0.00,WeatherDisplay:10.37,2013-04-09 18:36:00,
2013-04-09 14:41:00,81.7,60.1,30.18,South,182,8.1,8.1,48,0.00,SCT,,0.00,WeatherDisplay:10.37,2013-04-09 18:41:00,
2013-04-09 14:46:00,82.0,60.4,30.18,SSE,149,8.1,8.1,48,0.00,SCT,,0.00,WeatherDisplay:10.37,2013-04-09 18:46:00,
2013-04-09 14:51:00,82.4,60.7,30.18,South,189,9.2,9.2,48,0.00,SCT,,0.00,WeatherDisplay:10.37,2013-04-09 18:51:00,
2013-04-09 14:56:00,82.6,60.9,30.18,SE,145,6.3,6.3,48,0.00,SCT,,0.00,WeatherDisplay:10.37,2013-04-09 18:56:00,
2013-04-09 15:02:00,81.5,62.2,30.15,SE,137,12.7,12.7,52,0.00,OVC,,0.00,WeatherDisplay:10.37,2013-04-09 19:02:00,
2013-04-09 15:07:00,80.2,61.0,30.15,ESE,104,10.4,10.4,52,0.00,OVC,,0.00,WeatherDisplay:10.37,2013-04-09 19:07:00,
2013-04-09 15:12:00,80.2,61.0,30.15,South,175,8.1,8.1,52,0.00,OVC,,0.00,WeatherDisplay:10.37,2013-04-09 19:12:00,
2013-04-09 15:17:00,80.2,61.0,30.15,SSE,149,10.5,10.5,52,0.00,OVC,,0.00,WeatherDisplay:10.37,2013-04-09 19:17:00,
2013-04-09 15:22:00,80.8,61.5,30.15,ESE,122,8.1,8.1,52,0.00,OVC,,0.00,WeatherDisplay:10.37,2013-04-09 19:22:00,
2013-04-09 15:27:00,80.6,61.3,30.15,ESE,116,8.1,8.1,52,0.00,OVC,,0.00,WeatherDisplay:10.37,2013-04-09 19:27:00,
2013-04-09 15:32:00,79.7,60.5,30.15,SE,139,8.1,8.1,52,0.00,OVC,,0.00,WeatherDisplay:10.37,2013-04-09 19:32:00,
2013-04-09 15:37:00,79.0,59.9,30.15,SSE,156,9.2,9.2,52,0.00,OVC,,0.00,WeatherDisplay:10.37,2013-04-09 19:37:00,
2013-04-09 15:42:00,78.8,59.7,30.15,SE,133,10.4,10.4,52,0.00,OVC,,0.00,WeatherDisplay:10.37,2013-04-09 19:42:00,
2013-04-09 15:48:00,79.9,60.7,30.15,SE,139,8.1,8.1,52,0.00,OVC,,0.00,WeatherDisplay:10.37,2013-04-09 19:48:00,
2013-04-09 15:53:00,81.3,62.0,30.15,ESE,118,9.2,9.2,52,0.00,OVC,,0.00,WeatherDisplay:10.37,2013-04-09 19:53:00,
2013-04-09 15:58:00,81.5,62.2,30.15,SSE,152,9.2,9.2,52,0.00,OVC,,0.00,WeatherDisplay:10.37,2013-04-09 19:58:00,
2013-04-09 16:03:00,82.0,62.7,30.15,SE,146,12.7,12.7,52,0.00,OVC,,0.00,WeatherDisplay:10.37,2013-04-09 20:03:00,
2013-04-09 16:08:00,82.2,62.8,30.15,ESE,116,10.4,10.4,52,0.00,OVC,,0.00,WeatherDisplay:10.37,2013-04-09 20:08:00,
2013-04-09 16:13:00,82.4,63.0,30.15,SE,134,13.2,13.2,52,0.00,OVC,,0.00,WeatherDisplay:10.37,2013-04-09 20:13:00,
2013-04-09 16:18:00,81.5,62.2,30.15,SSE,147,8.1,8.1,52,0.00,OVC,,0.00,WeatherDisplay:10.37,2013-04-09 20:18:00,
2013-04-09 16:23:00,81.9,62.5,30.15,SE,143,11.5,11.5,52,0.00,OVC,,0.00,WeatherDisplay:10.37,2013-04-09 20:23:00,
2013-04-09 16:28:00,81.5,62.2,30.15,SSE,166,12.7,12.7,52,0.00,OVC,,0.00,WeatherDisplay:10.37,2013-04-09 20:28:00,
2013-04-09 16:33:00,81.7,62.3,30.15,SE,133,8.7,8.7,52,0.00,OVC,,0.00,WeatherDisplay:10.37,2013-04-09 20:33:00,
2013-04-09 16:38:00,81.5,62.2,30.15,ESE,109,8.1,8.1,52,0.00,OVC,,0.00,WeatherDisplay:10.37,2013-04-09 20:38:00,
2013-04-09 16:43:00,81.9,62.5,30.15,SE,133,8.1,8.1,52,0.00,OVC,,0.00,WeatherDisplay:10.37,2013-04-09 20:43:00,
2013-04-09 16:48:00,82.0,62.7,30.15,East,87,12.7,12.7,52,0.00,OVC,,0.00,WeatherDisplay:10.37,2013-04-09 20:48:00,
2013-04-09 16:53:00,81.3,62.0,30.15,SE,141,12.7,12.7,52,0.00,OVC,,0.00,WeatherDisplay:10.37,2013-04-09 20:53:00,
2013-04-09 16:58:00,81.5,62.2,30.15,SSE,164,11.5,11.5,52,0.00,OVC,,0.00,WeatherDisplay:10.37,2013-04-09 20:58:00,
2013-04-09 17:03:00,81.3,62.0,30.15,South,170,8.1,8.1,52,0.00,OVC,,0.00,WeatherDisplay:10.37,2013-04-09 21:03:00,
2013-04-09 17:08:00,81.0,61.7,30.15,SSE,162,8.1,8.1,52,0.00,OVC,,0.00,WeatherDisplay:10.37,2013-04-09 21:08:00,
2013-04-09 17:13:00,80.8,61.5,30.15,SE,146,8.1,8.1,52,0.00,OVC,,0.00,WeatherDisplay:10.37,2013-04-09 21:13:00,
2013-04-09 17:18:00,81.1,61.8,30.15,SE,136,10.5,10.5,52,0.00,OVC,,0.00,WeatherDisplay:10.37,2013-04-09 21:18:00,
2013-04-09 17:24:00,80.6,61.3,30.15,SE,137,11.5,11.5,52,0.00,OVC,,0.00,WeatherDisplay:10.37,2013-04-09 21:24:00,
2013-04-09 17:29:00,80.2,61.0,30.15,SSE,147,8.3,8.3,52,0.00,OVC,,0.00,WeatherDisplay:10.37,2013-04-09 21:29:00,
2013-04-09 17:34:00,80.1,60.8,30.15,ESE,116,9.2,9.2,52,0.00,OVC,,0.00,WeatherDisplay:10.37,2013-04-09 21:34:00,
2013-04-09 17:40:00,79.9,60.7,30.15,East,101,8.1,8.1,52,0.00,OVC,,0.00,WeatherDisplay:10.37,2013-04-09 21:40:00,
2013-04-09 17:45:00,79.8,60.6,30.15,ESE,121,7.0,10.0,52,0.00,OVC,,0.00,WeatherDisplay:10.37,2013-04-09 21:45:00,
2013-04-09 17:50:00,79.3,60.1,30.15,SE,129,8.0,12.0,52,0.00,OVC,,0.00,WeatherDisplay:10.37,2013-04-09 21:50:00,
2013-04-09 17:55:00,79.3,60.2,30.15,SSE,162,10.4,10.4,52,0.00,OVC,,0.00,WeatherDisplay:10.37,2013-04-09 21:55:00,
2013-04-09 18:00:00,79.2,60.0,30.15,SE,124,3.0,11.0,52,0.00,OVC,,0.00,WeatherDisplay:10.37,2013-04-09 22:00:00,
2013-04-09 18:05:00,79.2,56.0,30.13,SSE,165,5.8,5.8,45,0.00,CLR,,0.00,WeatherDisplay:10.37,2013-04-09 22:05:00,
2013-04-09 18:10:00,79.2,56.0,30.13,SSE,161,9.2,9.2,45,0.00,CLR,,0.00,WeatherDisplay:10.37,2013-04-09 22:10:00,
2013-04-09 18:15:00,78.8,55.7,30.13,ESE,123,8.1,8.1,45,0.00,CLR,,0.00,WeatherDisplay:10.37,2013-04-09 22:15:00,
2013-04-09 18:20:00,78.4,55.3,30.13,ESE,111,6.9,6.9,45,0.00,CLR,,0.00,WeatherDisplay:10.37,2013-04-09 22:20:00,
2013-04-09 18:25:00,78.4,55.3,30.13,ESE,115,5.8,6.3,45,0.00,CLR,,0.00,WeatherDisplay:10.37,2013-04-09 22:25:00,
2013-04-09 18:30:00,78.3,55.2,30.13,SSE,151,8.1,8.1,45,0.00,CLR,,0.00,WeatherDisplay:10.37,2013-04-09 22:30:00,
2013-04-09 18:35:00,77.9,54.8,30.13,SSE,153,11.5,11.5,45,0.00,CLR,,0.00,WeatherDisplay:10.37,2013-04-09 22:35:00,
2013-04-09 18:40:00,77.5,54.5,30.13,ESE,114,9.2,9.2,45,0.00,CLR,,0.00,WeatherDisplay:10.37,2013-04-09 22:40:00,
2013-04-09 18:45:00,77.0,54.0,30.13,SE,124,10.4,10.4,45,0.00,CLR,,0.00,WeatherDisplay:10.37,2013-04-09 22:45:00,
2013-04-09 18:50:00,76.6,53.7,30.13,ESE,118,10.4,10.4,45,0.00,CLR,,0.00,WeatherDisplay:10.37,2013-04-09 22:50:00,
2013-04-09 18:56:00,76.5,53.5,30.13,SE,127,8.1,8.1,45,0.00,CLR,,0.00,WeatherDisplay:10.37,2013-04-09 22:56:00,
2013-04-09 19:02:00,76.1,53.2,30.03,SE,141,8.1,8.1,45,0.00,CLR,,0.00,WeatherDisplay:10.37,2013-04-09 23:02:00,
2013-04-09 19:07:00,75.9,53.0,30.13,SE,143,5.8,5.8,45,0.00,CLR,,0.00,WeatherDisplay:10.37,2013-04-09 23:07:00,
2013-04-09 19:12:00,75.7,52.9,30.13,South,170,5.8,5.8,45,0.00,CLR,,0.00,WeatherDisplay:10.37,2013-04-09 23:12:00,
2013-04-09 19:18:00,75.2,52.4,30.13,East,98,9.2,9.2,45,0.00,CLR,,0.00,WeatherDisplay:10.37,2013-04-09 23:18:00,
2013-04-09 19:23:00,74.8,52.1,30.13,SSE,160,9.2,9.2,45,0.00,CLR,,0.00,WeatherDisplay:10.37,2013-04-09 23:23:00,
2013-04-09 19:28:00,74.5,51.7,30.13,ESE,110,8.1,8.1,45,0.00,CLR,,0.00,WeatherDisplay:10.37,2013-04-09 23:28:00,
2013-04-09 19:33:00,73.9,51.3,30.13,ESE,121,3.5,3.6,45,0.00,CLR,,0.00,WeatherDisplay:10.37,2013-04-09 23:33:00,
2013-04-09 19:38:00,73.6,50.9,30.13,SE,125,8.1,8.1,45,0.00,CLR,,0.00,WeatherDisplay:10.37,2013-04-09 23:38:00,
2013-04-09 19:43:00,73.2,50.6,30.13,ESE,121,5.8,5.8,45,0.00,CLR,,0.00,WeatherDisplay:10.37,2013-04-09 23:43:00,
2013-04-09 19:48:00,72.9,50.3,30.13,SE,128,8.1,8.1,45,0.00,CLR,,0.00,WeatherDisplay:10.37,2013-04-09 23:48:00,
2013-04-09 19:53:00,72.5,49.9,30.13,SE,124,5.8,5.8,45,0.00,CLR,,0.00,WeatherDisplay:10.37,2013-04-09 23:53:00,
2013-04-09 19:58:00,72.1,49.6,30.13,ESE,120,5.8,5.8,45,0.00,CLR,,0.00,WeatherDisplay:10.37,2013-04-09 23:58:00,
2013-04-09 20:03:00,71.8,54.7,30.14,ESE,116,5.8,5.8,55,0.00,CLR,,0.00,WeatherDisplay:10.37,2013-04-10 00:03:00,
2013-04-09 20:08:00,71.4,54.4,30.14,East,97,5.8,5.8,55,0.00,CLR,,0.00,WeatherDisplay:10.37,2013-04-10 00:08:00,
2013-04-09 20:13:00,71.1,54.1,30.14,SE,138,3.5,3.6,55,0.00,CLR,,0.00,WeatherDisplay:10.37,2013-04-10 00:13:00,
2013-04-09 20:18:00,70.9,53.9,30.14,ESE,111,5.8,5.8,55,0.00,CLR,,0.00,WeatherDisplay:10.37,2013-04-10 00:18:00,
2013-04-09 20:23:00,70.5,53.6,30.14,ESE,122,5.8,5.8,55,0.00,CLR,,0.00,WeatherDisplay:10.37,2013-04-10 00:23:00,
2013-04-09 20:29:00,70.2,53.2,30.14,ESE,113,5.8,5.8,55,0.00,CLR,,0.00,WeatherDisplay:10.37,2013-04-10 00:29:00,
2013-04-09 20:33:00,70.0,53.1,30.14,ESE,113,3.5,3.5,55,0.00,CLR,,0.00,WeatherDisplay:10.37,2013-04-10 00:33:00,
2013-04-09 20:38:00,69.8,52.9,30.14,SSE,151,4.6,4.6,55,0.00,CLR,,0.00,WeatherDisplay:10.37,2013-04-10 00:38:00,
2013-04-09 20:43:00,69.4,52.6,30.14,SE,132,3.5,3.5,55,0.00,CLR,,0.00,WeatherDisplay:10.37,2013-04-10 00:43:00,
2013-04-09 20:49:00,69.3,52.4,30.14,ESE,115,3.6,0.0,55,0.00,CLR,,0.00,WeatherDisplay:10.37,2013-04-10 00:49:00,
2013-04-09 20:54:00,69.1,52.2,30.14,ESE,116,3.5,3.5,55,0.00,CLR,,0.00,WeatherDisplay:10.37,2013-04-10 00:54:00,
2013-04-09 20:59:00,68.7,51.9,30.14,ESE,115,3.5,3.5,55,0.00,CLR,,0.00,WeatherDisplay:10.37,2013-04-10 00:59:00,
2013-04-09 21:04:00,68.5,51.7,30.14,ESE,114,0.0,0.0,55,0.00,CLR,,0.00,WeatherDisplay:10.37,2013-04-10 01:04:00,
2013-04-09 21:09:00,68.2,51.4,30.14,ESE,115,0.0,0.0,55,0.00,CLR,,0.00,WeatherDisplay:10.37,2013-04-10 01:09:00,
2013-04-09 21:14:00,68.0,51.2,30.14,ESE,115,0.0,0.0,55,0.00,CLR,,0.00,WeatherDisplay:10.37,2013-04-10 01:14:00,
2013-04-09 21:19:00,67.6,50.9,30.14,ESE,115,0.0,0.0,55,0.00,CLR,,0.00,WeatherDisplay:10.37,2013-04-10 01:19:00,
2013-04-09 21:24:00,67.3,50.6,30.14,ESE,115,0.0,0.0,55,0.00,CLR,,0.00,WeatherDisplay:10.37,2013-04-10 01:24:00,
2013-04-09 21:29:00,66.9,50.2,30.14,ESE,115,0.0,0.0,55,0.00,CLR,,0.00,WeatherDisplay:10.37,2013-04-10 01:29:00,
2013-04-09 21:34:00,66.6,49.9,30.14,ESE,115,0.0,0.0,55,0.00,CLR,,0.00,WeatherDisplay:10.37,2013-04-10 01:34:00,
2013-04-09 21:39:00,66.2,49.6,30.14,ESE,115,0.0,0.0,55,0.00,CLR,,0.00,WeatherDisplay:10.37,2013-04-10 01:39:00,
2013-04-09 21:44:00,65.8,49.2,30.14,ESE,115,0.0,0.0,55,0.00,CLR,,0.00,WeatherDisplay:10.37,2013-04-10 01:44:00,
2013-04-09 21:49:00,65.5,48.9,30.14,ESE,115,0.0,0.0,55,0.00,CLR,,0.00,WeatherDisplay:10.37,2013-04-10 01:49:00,
2013-04-09 21:54:00,65.1,48.5,30.14,ESE,115,0.0,0.0,55,0.00,CLR,,0.00,WeatherDisplay:10.37,2013-04-10 01:54:00,
2013-04-09 21:59:00,64.8,48.2,30.14,ESE,115,0.0,0.0,55,0.00,CLR,,0.00,WeatherDisplay:10.37,2013-04-10 01:59:00,
2013-04-09 22:04:00,64.4,56.3,30.16,ESE,115,0.0,0.0,75,0.00,CLR,,0.00,WeatherDisplay:10.37,2013-04-10 02:04:00,
2013-04-09 22:09:00,64.0,56.0,30.16,ESE,115,0.0,0.0,75,0.00,CLR,,0.00,WeatherDisplay:10.37,2013-04-10 02:09:00,
2013-04-09 22:14:00,63.7,55.6,30.16,ESE,115,0.0,0.0,75,0.00,CLR,,0.00,WeatherDisplay:10.37,2013-04-10 02:14:00,
2013-04-09 22:19:00,63.3,55.3,30.16,ESE,115,0.0,0.0,75,0.00,CLR,,0.00,WeatherDisplay:10.37,2013-04-10 02:19:00,
2013-04-09 22:24:00,63.1,55.1,30.16,ESE,115,0.0,0.0,75,0.00,CLR,,0.00,WeatherDisplay:10.37,2013-04-10 02:24:00,
2013-04-09 22:29:00,63.0,54.9,30.16,ESE,115,0.0,0.0,75,0.00,CLR,,0.00,WeatherDisplay:10.37,2013-04-10 02:29:00,
2013-04-09 22:34:00,62.8,54.7,30.16,ESE,115,0.0,0.0,75,0.00,CLR,,0.00,WeatherDisplay:10.37,2013-04-10 02:34:00,
2013-04-09 22:39:00,62.6,54.6,30.16,ESE,115,0.0,0.0,75,0.00,CLR,,0.00,WeatherDisplay:10.37,2013-04-10 02:39:00,
2013-04-09 22:44:00,62.2,54.2,30.16,ESE,115,0.0,0.0,75,0.00,CLR,,0.00,WeatherDisplay:10.37,2013-04-10 02:44:00,
2013-04-09 22:49:00,62.1,54.0,30.16,ESE,115,0.0,0.0,75,0.00,CLR,,0.00,WeatherDisplay:10.37,2013-04-10 02:49:00,
2013-04-09 22:54:00,61.9,53.9,30.16,ESE,115,0.0,0.0,75,0.00,CLR,,0.00,WeatherDisplay:10.37,2013-04-10 02:54:00,
2013-04-09 22:59:00,61.5,53.5,30.16,ESE,115,0.0,0.0,75,0.00,CLR,,0.00,WeatherDisplay:10.37,2013-04-10 02:59:00,
2013-04-09 23:04:00,61.5,55.6,30.16,ESE,115,0.0,0.0,81,0.00,CLR,,0.00,WeatherDisplay:10.37,2013-04-10 03:04:00,
2013-04-09 23:09:00,61.3,55.5,30.16,ESE,115,0.0,0.0,81,0.00,CLR,,0.00,WeatherDisplay:10.37,2013-04-10 03:09:00,
2013-04-09 23:14:00,61.2,55.3,30.16,ESE,115,0.0,0.0,81,0.00,CLR,,0.00,WeatherDisplay:10.37,2013-04-10 03:14:00,
2013-04-09 23:19:00,61.0,55.1,30.16,ESE,115,0.0,0.0,81,0.00,CLR,,0.00,WeatherDisplay:10.37,2013-04-10 03:19:00,
2013-04-09 23:24:00,60.6,54.8,30.16,ESE,115,0.0,0.0,81,0.00,CLR,,0.00,WeatherDisplay:10.37,2013-04-10 03:24:00,
2013-04-09 23:30:00,60.4,54.6,30.16,ESE,115,0.0,0.0,81,0.00,CLR,,0.00,WeatherDisplay:10.37,2013-04-10 03:30:00,
2013-04-09 23:35:00,60.3,54.4,30.16,ESE,115,0.0,0.0,81,0.00,CLR,,0.00,WeatherDisplay:10.37,2013-04-10 03:35:00,
2013-04-09 23:40:00,60.3,54.4,30.16,ESE,115,0.0,0.0,81,0.00,CLR,,0.00,WeatherDisplay:10.37,2013-04-10 03:40:00,
2013-04-09 23:45:00,60.1,54.2,30.16,ESE,115,0.0,0.0,81,0.00,CLR,,0.00,WeatherDisplay:10.37,2013-04-10 03:45:00,
2013-04-09 23:50:00,59.9,54.1,30.16,ESE,115,0.0,0.0,81,0.00,CLR,,0.00,WeatherDisplay:10.37,2013-04-10 03:50:00,
2013-04-09 23:55:00,59.9,54.1,30.16,ESE,115,0.0,0.0,81,0.00,CLR,,0.00,WeatherDisplay:10.37,2013-04-10 03:55:00,